Time,TemperatureF,DewpointF,PressureIn,WindDirection,WindDirectionDegrees,WindSpeedMPH,WindSpeedGustMPH,Humidity,HourlyPrecipIn,Conditions,Clouds,dailyrainin,SoftwareType,DateUTC
2013-03-06 00:00:00,41.0,23.0,-100.00,NW,310,5.0,-999.0,49,0.00,,,0.00,,2013-03-06 06:00:00,
2013-03-06 00:32:00,41.0,23.0,-100.00,NW,310,5.0,-999.0,49,0.00,,,0.00,,2013-03-06 06:32:00,
2013-03-06 00:42:00,41.0,23.0,-100.00,NW,310,5.0,-999.0,49,0.00,,,0.00,,2013-03-06 06:42:00,
2013-03-06 00:52:00,41.0,23.0,-100.00,NW,310,5.0,-999.0,49,0.00,,,0.00,,2013-03-06 06:52:00,
2013-03-06 01:00:00,41.0,22.0,-100.00,NW,307,7.0,-999.0,47,0.00,,,0.00,,2013-03-06 07:00:00,
2013-03-06 01:32:00,41.0,22.0,-100.00,NW,307,7.0,-999.0,47,0.00,,,0.00,,2013-03-06 07:32:00,
2013-03-06 01:42:00,41.0,22.0,-100.00,NW,307,7.0,-999.0,47,0.00,,,0.00,,2013-03-06 07:42:00,
2013-03-06 01:52:00,41.0,22.0,-100.00,NW,307,7.0,-999.0,47,0.00,,,0.00,,2013-03-06 07:52:00,
2013-03-06 02:00:00,41.0,24.0,-100.00,NW,308,6.0,-999.0,52,0.00,,,0.00,,2013-03-06 08:00:00,
2013-03-06 02:32:00,41.0,24.0,-100.00,NW,308,6.0,-999.0,52,0.00,,,0.00,,2013-03-06 08:32:00,
2013-03-06 02:42:00,41.0,24.0,-100.00,NW,308,6.0,-999.0,52,0.00,,,0.00,,2013-03-06 08:42:00,
2013-03-06 02:52:00,41.0,24.0,-100.00,NW,308,6.0,-999.0,52,0.00,,,0.00,,2013-03-06 08:52:00,
2013-03-06 03:00:00,39.0,22.0,-100.00,NW,306,6.0,-999.0,51,0.00,,,0.00,,2013-03-06 09:00:00,
2013-03-06 03:32:00,39.0,22.0,-100.00,NW,306,6.0,-999.0,51,0.00,,,0.00,,2013-03-06 09:32:00,
2013-03-06 03:42:00,39.0,22.0,-100.00,NW,306,6.0,-999.0,51,0.00,,,0.00,,2013-03-06 09:42:00,
2013-03-06 03:52:00,39.0,22.0,-100.00,NW,306,6.0,-999.0,51,0.00,,,0.00,,2013-03-06 09:52:00,
2013-03-06 04:00:00,38.0,23.0,-100.00,NW,304,6.0,-999.0,53,0.00,,,0.00,,2013-03-06 10:00:00,
2013-03-06 04:42:00,38.0,23.0,-100.00,NW,304,6.0,-999.0,53,0.00,,,0.00,,2013-03-06 10:42:00,
2013-03-06 04:52:00,38.0,23.0,-100.00,NW,304,6.0,-999.0,53,0.00,,,0.00,,2013-03-06 10:52:00,
2013-03-06 05:00:00,37.0,23.0,-100.00,WNW,303,5.0,-999.0,57,0.00,,,0.00,,2013-03-06 11:00:00,
2013-03-06 05:32:00,37.0,23.0,-100.00,WNW,303,5.0,-999.0,57,0.00,,,0.00,,2013-03-06 11:32:00,
2013-03-06 05:42:00,37.0,23.0,-100.00,WNW,303,5.0,-999.0,57,0.00,,,0.00,,2013-03-06 11:42:00,
2013-03-06 05:52:00,37.0,23.0,-100.00,WNW,303,5.0,-999.0,57,0.00,,,0.00,,2013-03-06 11:52:00,
2013-03-06 06:00:00,36.0,21.0,-100.00,NW,308,4.0,-999.0,54,0.00,,,0.00,,2013-03-06 12:00:00,
2013-03-06 06:33:00,36.0,21.0,-100.00,NW,308,4.0,-999.0,54,0.00,,,0.00,,2013-03-06 12:33:00,
2013-03-06 06:43:00,36.0,21.0,-100.00,NW,308,4.0,-999.0,54,0.00,,,0.00,,2013-03-06 12:43:00,
2013-03-06 06:52:00,36.0,21.0,-100.00,NW,308,4.0,-999.0,54,0.00,,,0.00,,2013-03-06 12:52:00,
2013-03-06 07:00:00,35.0,20.0,-100.00,NW,304,3.0,-999.0,54,0.00,,,0.00,,2013-03-06 13:00:00,
2013-03-06 07:32:00,35.0,20.0,-100.00,NW,304,3.0,-999.0,54,0.00,,,0.00,,2013-03-06 13:32:00,
2013-03-06 07:42:00,35.0,20.0,-100.00,NW,304,3.0,-999.0,54,0.00,,,0.00,,2013-03-06 13:42:00,
2013-03-06 07:52:00,35.0,20.0,-100.00,NW,304,3.0,-999.0,54,0.00,,,0.00,,2013-03-06 13:52:00,
2013-03-06 08:00:00,35.0,20.0,-100.00,NW,311,5.0,-999.0,52,0.00,,,0.00,,2013-03-06 14:00:00,
2013-03-06 08:32:00,35.0,20.0,-100.00,NW,311,5.0,-999.0,52,0.00,,,0.00,,2013-03-06 14:32:00,
2013-03-06 08:42:00,35.0,20.0,-100.00,NW,311,5.0,-999.0,52,0.00,,,0.00,,2013-03-06 14:42:00,
2013-03-06 08:52:00,35.0,20.0,-100.00,NW,311,5.0,-999.0,52,0.00,,,0.00,,2013-03-06 14:52:00,
2013-03-06 09:00:00,38.0,21.0,-100.00,NW,308,3.0,-999.0,50,0.00,,,0.00,,2013-03-06 15:00:00,
2013-03-06 09:32:00,38.0,21.0,-100.00,NW,308,3.0,-999.0,50,0.00,,,0.00,,2013-03-06 15:32:00,
2013-03-06 09:42:00,38.0,21.0,-100.00,NW,308,3.0,-999.0,50,0.00,,,0.00,,2013-03-06 15:42:00,
2013-03-06 09:52:00,38.0,21.0,-100.00,NW,308,3.0,-999.0,50,0.00,,,0.00,,2013-03-06 15:52:00,
2013-03-06 10:00:00,41.0,20.0,-100.00,WNW,302,0.0,-999.0,42,0.00,,,0.00,,2013-03-06 16:00:00,
2013-03-06 10:32:00,41.0,20.0,-100.00,WNW,302,0.0,-999.0,42,0.00,,,0.00,,2013-03-06 16:32:00,
2013-03-06 10:42:00,41.0,20.0,-100.00,WNW,302,0.0,-999.0,42,0.00,,,0.00,,2013-03-06 16:42:00,
2013-03-06 10:52:00,41.0,20.0,-100.00,WNW,302,0.0,-999.0,42,0.00,,,0.00,,2013-03-06 16:52:00,
2013-03-06 11:00:00,43.0,16.0,-100.00,WNW,302,1.0,-999.0,32,0.00,,,0.00,,2013-03-06 17:00:00,
2013-03-06 11:32:00,43.0,16.0,-100.00,WNW,302,1.0,-999.0,32,0.00,,,0.00,,2013-03-06 17:32:00,
2013-03-06 11:42:00,43.0,16.0,-100.00,WNW,302,1.0,-999.0,32,0.00,,,0.00,,2013-03-06 17:42:00,
2013-03-06 11:53:00,43.0,16.0,-100.00,WNW,302,1.0,-999.0,32,0.00,,,0.00,,2013-03-06 17:53:00,
2013-03-06 13:00:00,51.0,15.0,-100.00,NE,37,0.0,-999.0,23,0.00,,,0.00,,2013-03-06 19:00:00,
2013-03-06 13:32:00,51.0,15.0,-100.00,NE,37,0.0,-999.0,23,0.00,,,0.00,,2013-03-06 19:32:00,
2013-03-06 13:43:00,51.0,15.0,-100.00,NE,37,0.0,-999.0,23,0.00,,,0.00,,2013-03-06 19:43:00,
2013-03-06 13:53:00,51.0,15.0,-100.00,NE,37,0.0,-999.0,23,0.00,,,0.00,,2013-03-06 19:53:00,
2013-03-06 14:00:00,54.0,16.0,-100.00,ESE,102,1.0,-999.0,22,0.00,,,0.00,,2013-03-06 20:00:00,
2013-03-06 14:32:00,54.0,16.0,-100.00,ESE,102,1.0,-999.0,22,0.00,,,0.00,,2013-03-06 20:32:00,
2013-03-06 14:43:00,54.0,16.0,-100.00,ESE,102,1.0,-999.0,22,0.00,,,0.00,,2013-03-06 20:43:00,
2013-03-06 14:53:00,54.0,16.0,-100.00,ESE,102,1.0,-999.0,22,0.00,,,0.00,,2013-03-06 20:53:00,
2013-03-06 15:00:00,56.0,19.0,-100.00,ESE,102,1.0,-999.0,23,0.00,,,0.00,,2013-03-06 21:00:00,
2013-03-06 15:32:00,56.0,19.0,-100.00,ESE,102,1.0,-999.0,23,0.00,,,0.00,,2013-03-06 21:32:00,
2013-03-06 15:42:00,56.0,19.0,-100.00,ESE,102,1.0,-999.0,23,0.00,,,0.00,,2013-03-06 21:42:00,
2013-03-06 15:52:00,56.0,19.0,-100.00,ESE,102,1.0,-999.0,23,0.00,,,0.00,,2013-03-06 21:52:00,
2013-03-06 16:00:00,59.0,17.0,-100.00,NE,36,1.0,-999.0,19,0.00,,,0.00,,2013-03-06 22:00:00,
2013-03-06 16:32:00,59.0,17.0,-100.00,NE,36,1.0,-999.0,19,0.00,,,0.00,,2013-03-06 22:32:00,
2013-03-06 16:42:00,59.0,17.0,-100.00,NE,36,1.0,-999.0,19,0.00,,,0.00,,2013-03-06 22:42:00,
2013-03-06 16:52:00,59.0,17.0,-100.00,NE,36,1.0,-999.0,19,0.00,,,0.00,,2013-03-06 22:52:00,
2013-03-06 17:00:00,59.0,16.0,-100.00,South,177,2.0,-999.0,18,0.00,,,0.00,,2013-03-06 23:00:00,
2013-03-06 17:32:00,59.0,16.0,-100.00,South,177,2.0,-999.0,18,0.00,,,0.00,,2013-03-06 23:32:00,
2013-03-06 17:42:00,59.0,16.0,-100.00,South,177,2.0,-999.0,18,0.00,,,0.00,,2013-03-06 23:42:00,
2013-03-06 17:52:00,59.0,16.0,-100.00,South,177,2.0,-999.0,18,0.00,,,0.00,,2013-03-06 23:52:00,
2013-03-06 18:00:00,55.0,20.0,-100.00,SSE,165,1.0,-999.0,25,0.00,,,0.00,,2013-03-07 00:00:00,
2013-03-06 18:32:00,55.0,20.0,-100.00,SSE,165,1.0,-999.0,25,0.00,,,0.00,,2013-03-07 00:32:00,
2013-03-06 18:42:00,55.0,20.0,-100.00,SSE,165,1.0,-999.0,25,0.00,,,0.00,,2013-03-07 00:42:00,
2013-03-06 18:52:00,55.0,20.0,-100.00,SSE,165,1.0,-999.0,25,0.00,,,0.00,,2013-03-07 00:52:00,
2013-03-06 19:00:00,52.0,20.0,-100.00,SSE,155,1.0,-999.0,28,0.00,,,0.00,,2013-03-07 01:00:00,
2013-03-06 19:32:00,52.0,20.0,-100.00,SSE,155,1.0,-999.0,28,0.00,,,0.00,,2013-03-07 01:32:00,
2013-03-06 19:42:00,52.0,20.0,-100.00,SSE,155,1.0,-999.0,28,0.00,,,0.00,,2013-03-07 01:42:00,
2013-03-06 19:52:00,52.0,20.0,-100.00,SSE,155,1.0,-999.0,28,0.00,,,0.00,,2013-03-07 01:52:00,
2013-03-06 20:00:00,51.0,18.0,-100.00,ESE,108,0.0,-999.0,27,0.00,,,0.00,,2013-03-07 02:00:00,
2013-03-06 20:32:00,51.0,18.0,-100.00,ESE,108,0.0,-999.0,27,0.00,,,0.00,,2013-03-07 02:32:00,
2013-03-06 20:42:00,51.0,18.0,-100.00,ESE,108,0.0,-999.0,27,0.00,,,0.00,,2013-03-07 02:42:00,
2013-03-06 20:52:00,51.0,18.0,-100.00,ESE,108,0.0,-999.0,27,0.00,,,0.00,,2013-03-07 02:52:00,
2013-03-06 21:00:00,46.0,25.0,-100.00,South,178,1.0,-999.0,43,0.00,,,0.00,,2013-03-07 03:00:00,
2013-03-06 21:32:00,46.0,25.0,-100.00,South,178,1.0,-999.0,43,0.00,,,0.00,,2013-03-07 03:32:00,
2013-03-06 21:42:00,46.0,25.0,-100.00,South,178,1.0,-999.0,43,0.00,,,0.00,,2013-03-07 03:42:00,
2013-03-06 21:52:00,46.0,25.0,-100.00,South,178,1.0,-999.0,43,0.00,,,0.00,,2013-03-07 03:52:00,
2013-03-06 22:00:00,43.0,26.0,-100.00,SE,144,1.0,-999.0,50,0.00,,,0.00,,2013-03-07 04:00:00,
2013-03-06 22:32:00,43.0,26.0,-100.00,SE,144,1.0,-999.0,50,0.00,,,0.00,,2013-03-07 04:32:00,
2013-03-06 22:42:00,43.0,26.0,-100.00,SE,144,1.0,-999.0,50,0.00,,,0.00,,2013-03-07 04:42:00,
2013-03-06 22:52:00,43.0,26.0,-100.00,SE,144,1.0,-999.0,50,0.00,,,0.00,,2013-03-07 04:52:00,
2013-03-06 23:00:00,43.0,30.0,-100.00,SE,132,1.0,-999.0,60,0.00,,,0.00,,2013-03-07 05:00:00,
2013-03-06 23:32:00,43.0,30.0,-100.00,SE,132,1.0,-999.0,60,0.00,,,0.00,,2013-03-07 05:32:00,
2013-03-06 23:42:00,43.0,30.0,-100.00,SE,132,1.0,-999.0,60,0.00,,,0.00,,2013-03-07 05:42:00,
2013-03-06 23:52:00,43.0,30.0,-100.00,SE,132,1.0,-999.0,60,0.00,,,0.00,,2013-03-07 05:52:00,